FUNCUBE-1 (AO-73) (39444 NORAD) Tracking and Keplerian Element Data

This shows tracking and keplerian element data for the satellite.

Feedback or suggestion? Click here.




ElementValue
Catalog39444
NameFUNCUBE-1 (AO-73)
Epoch Orbit26798
Epoch Day322.95103832
Epoch Year2018
RAAN344.9485
Inclination97.5759
Eccentricity0.0058181
Argument of Perigee4.3902
Mean Anonmoly355.781
Mean Motion14.81811677
Decay Rate3.06E-06
L11 39444U 13066AE 18322.95103832 .00000306 00000-0 44060-4 0 9994
L22 39444 97.5759 344.9485 0058181 4.3902 355.7810 14.81811677267981

Live tracking and technical data element details for FUNCUBE-1 (AO-73) (NORAD 39444). FUNCUBE-1 (AO-73) can be tracked NOW for your location showing map with azimuth and elevation plus other details from your city location.

Track the satellite on the map from your city or location and see movement details for azimuth, elevation, latitude, longitude, range, height, and movement on the map or in text.







IsCatalogInMostPopularTable: catalog: 39444, numindb: 119
Update: records affected: 1



GetName: 39444 FUNCUBE-1 (AO-73)

Hit Count: updated at: Mon, 19 Nov 2018 13:06:00 GMT